Find Starlink 2194

NORAD ID: 47771 Int'l Des: 2021-017 Owner: SPXS Country: US Constellation: starlink operational
LEOCIRCULAR

現在のビュー

3D地球を読み込み中...

About Starlink 2194

Starlink 2194 (NORAD 47771) is a starlink constellation satellite (v1.0) launched Mar 4, 2021 by SPXS of US. It operates in LEO, CIRCULAR orbit with a mass of 260.00 kg.

次回通過

Passes for default location (London). Set your location on the main map for personalized predictions.

高度履歴

Loading altitude history...

軌道要素

1 47771U 21017BB 26263.88817808 .00024835 00000-0 70865-3 0 9995
2 47771 53.1594 14.8164 0001992 7.6810 352.4224 15.35921187307792
Epoch: Sep 20, 2026 • Age: 17 hours

現在のステータス

高度 459.5 km
遠地点 / 近地点 N/A
速度 7.64 km/s
衛星直下点 -9.96°S, 146.86°E
打ち上げ日 Mar 4, 2021
運用期間 5.5 years
タイプ internet

技術仕様

分類 Payload
質量 260.00 kg
乾燥質量 248.00 kg
長さ 0.20 m
スパン 9.00 m
形状 ? Box + pan
製造者 SPXS
バスタイプ Starlink
フェーズステータス In Orbit
所有者/国 SPXS/US

Most Searched